全部
Wilcannia Airport (Wilcannia, New South Wales) WIO 天气
|
Wilcannia, New South Wales (WIO / YWCA)
晴天
微风 |
|
10 °C |
There is no TAF data available at WIO or any nearby airports.
WIO近期METAR历史数据
| Date | Time (AEST) | Flight Rules | Wind Dir. | Speed | Type | Height AGL (ft) | Visibility | Temp (°C) | Temp (°F) | Dew Point (°C) | Dew Point (°F) | Rel. Humid. | Pressure | Density Altitude | Remarks |
|---|---|---|---|---|---|---|---|---|---|---|---|---|---|---|---|
| 05-五月 | 08:00 | n/a | 240° | 4 kt | Missing | 10° | 50° | 9° | 48° | 93% | 1022 mb | -610 ft | |||
| 05-五月 | 07:00 | n/a | 250° | 4 kt | Missing | 8° | 46° | 6° | 42° | 87% | 1021 mb | -820 ft | |||
| 05-五月 | 06:00 | n/a | 270° | 4 kt | Missing | 8° | 46° | 6° | 42° | 87% | 1020 mb | -791 ft | |||
| 05-五月 | 05:00 | n/a | 250° | 4 kt | Missing | 8° | 46° | 6° | 42° | 87% | 1019 mb | -761 ft | |||
| 05-五月 | 04:00 | n/a | 240° | 7 kt | Missing | 9° | 48° | 7° | 44° | 87% | 1019 mb | -641 ft | |||
| 05-五月 | 03:00 | n/a | 260° | 6 kt | Missing | 10° | 50° | 7° | 44° | 82% | 1019 mb | -521 ft | |||
| 05-五月 | 02:00 | n/a | 260° | 7 kt | Missing | 9° | 48° | 7° | 44° | 87% | 1019 mb | -641 ft | |||
| 05-五月 | 01:00 | n/a | 270° | 6 kt | Missing | 10° | 50° | 7° | 44° | 82% | 1019 mb | -521 ft | |||
| 05-五月 | 00:00 | n/a | 290° | 7 kt | Missing | 11° | 51° | 7° | 44° | 76% | 1019 mb | -401 ft | |||
| 04-五月 | 23:00 | n/a | 300° | 7 kt | Missing | 11° | 51° | 7° | 44° | 76% | 1019 mb | -401 ft | |||
| 04-五月 | 22:00 | n/a | 300° | 7 kt | Missing | 11° | 51° | 8° | 46° | 82% | 1020 mb | -431 ft | |||
| 04-五月 | 21:00 | n/a | 290° | 6 kt | Missing | 12° | 53° | 8° | 46° | 76% | 1019 mb | -281 ft | |||
| 04-五月 | 20:00 | n/a | 290° | 6 kt | Missing | 12° | 53° | 8° | 46° | 76% | 1019 mb | -281 ft | |||
| 04-五月 | 19:00 | n/a | 290° | 7 kt | Missing | 14° | 57° | 8° | 46° | 67% | 1018 mb | -12 ft | |||
| 04-五月 | 18:00 | n/a | 260° | 7 kt | Missing | 17° | 62° | 7° | 44° | 52% | 1017 mb | 378 ft | |||
| 04-五月 | 17:00 | n/a | 270° | 11 kt | Missing | 21° | 69° | 5° | 41° | 35% | 1016 mb | 888 ft | |||
| 04-五月 | 16:00 | n/a | 290° | 12 kt | Missing | 21° | 69° | 4° | 39° | 33% | 1016 mb | 888 ft | |||
| 04-五月 | 15:00 | n/a | 300° | 12 kt | Missing | 22° | 71° | 4° | 39° | 31% | 1016 mb | 1,008 ft | |||
| 04-五月 | 14:00 | n/a | 290° | 11 kt | Missing | 22° | 71° | 5° | 41° | 33% | 1016 mb | 1,008 ft | |||
| 04-五月 | 13:00 | n/a | 280° | 11 kt | Missing | 22° | 71° | 6° | 42° | 35% | 1016 mb | 1,008 ft | |||
| 04-五月 | 12:00 | n/a | 280° | 11 kt | Missing | 21° | 69° | 7° | 44° | 40% | 1017 mb | 858 ft | |||
| 04-五月 | 11:00 | n/a | 280° | 9 kt | Missing | 20° | 68° | 8° | 46° | 46% | 1018 mb | 708 ft | |||
| 04-五月 | 10:00 | n/a | 280° | 5 kt | Missing | 17° | 62° | 11° | 51° | 68% | 1018 mb | 348 ft | |||
| 04-五月 | 09:00 | n/a | 300° | 7 kt | Missing | 14° | 57° | 11° | 51° | 82% | 1018 mb | -12 ft |
登录
| 您的浏览器不支持. 升级您的浏览器 |
